FW7943 Weather Reports


Display with metric or nautical units.
time (UTC)temp
F
wind
direction
speed
MPH
gust
MPH
rain 1hr
in
rain 24hr
in
rain mn
in
humidity
%
barometer
mb
20260504050415 46 4 0.0 0.0 0.00 0.00 0.00 63 1016.8
20260504045912 46 18 0.0 0.0 0.00 0.00 0.00 61 1016.6
20260504045408 46 18 0.0 0.0 0.00 0.00 0.00 61 1016.5
20260504044904 47 18 0.0 0.0 0.00 0.00 0.00 61 1016.6
20260504044402 46 18 0.0 0.0 0.00 0.00 0.00 59 1016.5
20260504043859 46 18 0.0 0.0 0.00 0.00 0.00 60 1016.5
20260504043356 46 18 0.0 0.0 0.00 0.00 0.00 59 1016.5
20260504042853 46 18 0.0 0.0 0.00 0.00 0.00 62 1016.4
20260504042349 46 18 0.0 0.0 0.00 0.00 0.00 59 1016.4
20260504041846 46 345 0.0 0.0 0.00 0.00 0.00 60 1016.6
20260504041342 46 354 0.0 0.0 0.00 0.00 0.00 59 1016.8
20260504040838 46 355 0.0 0.0 0.00 0.00 0.00 61 1016.7
20260504040336 45 356 0.0 0.0 0.00 0.00 0.00 60 1016.6
20260504035831 46 356 0.0 0.0 0.00 0.00 0.00 61 1016.5
20260504035330 46 356 0.0 0.0 0.00 0.00 0.00 59 1016.3
20260504034826 46 355 0.0 0.0 0.00 0.00 0.00 57 1016.5
20260504034319 47 355 0.0 0.0 0.00 0.00 0.00 56 1016.7
20260504033815 47 355 0.0 0.0 0.00 0.00 0.00 57 1016.4
20260504033314 46 355 0.0 0.0 0.00 0.00 0.00 57 1016.3
20260504032809 47 337 0.0 0.0 0.00 0.00 0.00 58 1016.5
20260504032307 47 325 0.0 0.0 0.00 0.00 0.00 57 1016.6
20260504031803 47 324 0.0 0.0 0.00 0.00 0.00 58 1016.2
20260504031301 47 327 0.0 0.0 0.00 0.00 0.00 55 1016.3
20260504030757 47 335 0.0 0.0 0.00 0.00 0.00 57 1016.5
20260504030254 47 131 1.0 1.0 0.00 0.00 0.00 54 1016.4
20260504025750 47 58 0.0 0.0 0.00 0.00 0.00 56 1016.3
20260504025247 47 16 0.0 0.0 0.00 0.00 0.00 57 1016.4
20260504024744 47 18 0.0 0.0 0.00 0.00 0.00 58 1016.4
20260504024240 47 18 0.0 0.0 0.00 0.00 0.00 57 1016.4
20260504023738 47 17 0.0 0.0 0.00 0.00 0.00 58 1016.4
20260504023234 47 17 0.0 0.0 0.00 0.00 0.00 59 1016.4
20260504022730 46 23 0.0 0.0 0.00 0.00 0.00 58 1016.5
20260504022226 46 36 0.0 0.0 0.00 0.00 0.00 57 1016.6
20260504021724 46 37 0.0 1.0 0.00 0.00 0.00 56 1016.3
20260504021221 46 36 0.0 1.0 0.00 0.00 0.00 55 1016.4
20260504020717 46 36 1.0 1.0 0.00 0.00 0.00 53 1016.5
20260504020214 46 7 0.0 0.0 0.00 0.00 0.00 54 1016.6
20260504015710 46 7 0.0 0.0 0.00 0.00 0.00 53 1016.4
20260504015206 46 7 0.0 0.0 0.00 0.00 0.00 52 1016.3
20260504014702 46 7 0.0 0.0 0.00 0.00 0.00 53 1016.3
20260504014159 46 7 0.0 0.0 0.00 0.00 0.00 53 1016.2
20260504013657 46 7 0.0 0.0 0.00 0.00 0.00 54 1016.1
20260504013154 46 7 0.0 0.0 0.00 0.00 0.00 53 1016.2
20260504012651 46 7 0.0 0.0 0.00 0.00 0.00 52 1016.1
20260504012149 47 7 0.0 0.0 0.00 0.00 0.00 52 1016.1
20260504011646 47 7 0.0 0.0 0.00 0.00 0.00 52 1016.0
20260504011142 47 7 0.0 0.0 0.00 0.00 0.00 53 1015.9
20260504010638 47 7 0.0 0.0 0.00 0.00 0.00 53 1015.7
20260504010134 47 7 0.0 0.0 0.00 0.00 0.00 52 1015.9
20260504005631 48 7 0.0 0.0 0.00 0.00 0.00 51 1015.6
20260504005127 48 7 0.0 0.0 0.00 0.00 0.00 52 1015.9
20260504004626 48 323 0.0 0.0 0.00 0.00 0.00 49 1015.6
20260504004123 48 323 0.0 0.0 0.00 0.00 0.00 49 1015.7
20260504003619 49 323 0.0 0.0 0.00 0.00 0.00 50 1015.7
20260504003115 49 323 0.0 0.0 0.00 0.00 0.00 48 1015.9
20260504002612 50 322 0.0 0.0 0.00 0.00 0.00 47 1015.9
20260504002110 50 322 0.0 0.0 0.00 0.00 0.00 46 1016.0
20260504001608 51 322 0.0 0.0 0.00 0.00 0.00 44 1015.5
20260504001103 51 322 0.0 0.0 0.00 0.00 0.00 42 1015.9
20260504000601 52 322 0.0 0.0 0.00 0.00 0.00 43 1015.9
20260504000058 53 320 0.0 0.0 0.00 0.00 0.00 41 1015.6
20260503235556 53 293 2.0 2.0 0.00 0.00 0.00 40 1015.7
20260503235053 53 322 0.0 0.0 0.00 0.00 0.00 40 1016.0
20260503234550 53 318 1.0 1.0 0.00 0.00 0.00 39 1015.9
20260503234049 54 305 1.0 1.0 0.00 0.00 0.00 37 1015.7
20260503233545 54 307 2.0 2.0 0.00 0.00 0.00 37 1015.5
20260503233041 54 311 2.0 2.0 0.00 0.00 0.00 37 1016.1
20260503232538 54 317 2.0 2.0 0.00 0.00 0.00 39 1015.9
20260503232036 54 313 2.0 2.0 0.00 0.00 0.00 37 1015.9
20260503231533 54 290 2.0 3.0 0.00 0.00 0.00 37 1015.9
20260503231030 54 287 3.0 3.0 0.00 0.00 0.00 37 1016.1
20260503230526 55 275 2.0 2.0 0.00 0.00 0.00 37 1015.7
20260503230024 55 298 2.0 2.0 0.00 0.00 0.00 34 1015.9
20260503225521 55 256 4.0 5.0 0.00 0.00 0.00 36 1016.2
20260503225015 55 264 3.0 3.0 0.00 0.00 0.00 36 1016.0
20260503224513 55 290 3.0 3.0 0.00 0.00 0.00 37 1016.2
20260503224011 55 289 3.0 3.0 0.00 0.00 0.00 37 1016.1
20260503223508 55 297 4.0 6.0 0.00 0.00 0.00 35 1016.0
20260503223004 56 296 4.0 5.0 0.00 0.00 0.00 36 1016.1
20260503222502 56 291 2.0 2.0 0.00 0.00 0.00 35 1016.1
20260503222000 56 313 1.0 2.0 0.00 0.00 0.00 36 1016.0
20260503221458 56 293 4.0 7.0 0.00 0.00 0.00 36 1016.0
20260503220955 56 236 3.0 3.0 0.00 0.00 0.00 34 1016.2
20260503220452 56 291 3.0 3.0 0.00 0.00 0.00 33 1015.9
20260503215948 56 325 3.0 3.0 0.00 0.00 0.00 36 1016.0
20260503215445 56 311 3.0 3.0 0.00 0.00 0.00 35 1016.0
20260503214943 56 251 3.0 3.0 0.00 0.00 0.00 36 1016.0
20260503214441 56 309 2.0 3.0 0.00 0.00 0.00 35 1015.7
20260503213938 56 288 4.0 5.0 0.00 0.00 0.00 34 1016.2
20260503213436 56 330 2.0 2.0 0.00 0.00 0.00 34 1016.0
20260503212932 55 319 2.0 3.0 0.00 0.00 0.00 35 1016.1
20260503212430 56 273 6.0 7.0 0.00 0.00 0.00 35 1016.3
20260503211927 56 308 0.0 1.0 0.00 0.00 0.00 33 1016.0
20260503211424 55 336 2.0 2.0 0.00 0.00 0.00 35 1016.1
20260503210919 56 330 2.0 5.0 0.00 0.00 0.00 36 1016.3
20260503210416 56 293 3.0 3.0 0.00 0.00 0.00 36 1016.3
20260503205916 55 288 4.0 5.0 0.00 0.00 0.00 36 1016.2
20260503205414 56 325 3.0 5.0 0.00 0.00 0.00 35 1016.3
20260503204910 56 305 2.0 2.0 0.00 0.00 0.00 39 1016.2
20260503204407 56 298 4.0 5.0 0.00 0.00 0.00 37 1016.3
20260503203904 56 282 3.0 3.0 0.00 0.00 0.00 36 1016.1
20260503203402 55 334 1.0 2.0 0.00 0.00 0.00 35 1016.5
20260503202858 55 321 3.0 3.0 0.00 0.00 0.00 38 1016.2
20260503202357 56 301 3.0 3.0 0.00 0.00 0.00 39 1016.5
20260503201855 55 313 1.0 2.0 0.00 0.00 0.00 39 1016.6
20260503201351 55 12 4.0 9.0 0.00 0.00 0.00 36 1016.5
20260503200849 55 342 3.0 5.0 0.00 0.00 0.00 38 1016.9
20260503200344 55 325 3.0 3.0 0.00 0.00 0.00 37 1016.6
20260503195842 55 302 3.0 3.0 0.00 0.00 0.00 38 1016.9
20260503195338 55 358 1.0 1.0 0.00 0.00 0.00 37 1016.9
20260503194836 55 337 2.0 2.0 0.00 0.00 0.00 36 1017.1
20260503194332 56 340 4.0 5.0 0.00 0.00 0.00 38 1017.2
20260503193828 56 286 3.0 5.0 0.00 0.00 0.00 36 1017.4
20260503193324 55 292 5.0 6.0 0.00 0.00 0.00 37 1017.7
20260503192820 56 256 2.0 3.0 0.00 0.00 0.00 37 1017.5
20260503192316 55 314 1.0 2.0 0.00 0.00 0.00 37 1017.6
20260503191812 54 216 2.0 2.0 0.00 0.00 0.00 39 1017.7
20260503191309 54 5 3.0 3.0 0.00 0.00 0.00 35 1018.0
20260503190806 54 299 4.0 6.0 0.00 0.00 0.00 37 1017.9
20260503190303 55 284 3.0 3.0 0.00 0.00 0.00 38 1018.1
20260503185800 54 2 1.0 2.0 0.00 0.00 0.00 36 1018.1
20260503185255 54 320 3.0 5.0 0.00 0.00 0.00 36 1018.2
20260503184755 55 299 4.0 5.0 0.00 0.00 0.00 34 1018.3
20260503184252 54 346 5.0 7.0 0.00 0.00 0.00 36 1017.9
20260503183748 54 308 1.0 2.0 0.00 0.00 0.00 34 1018.2
20260503183246 53 2 1.0 1.0 0.00 0.00 0.00 35 1018.3
20260503182743 53 316 2.0 2.0 0.00 0.00 0.00 37 1018.3
20260503182242 53 88 3.0 3.0 0.00 0.00 0.00 34 1018.3
20260503181738 51 291 6.0 7.0 0.00 0.00 0.00 37 1018.3
20260503181236 52 285 7.0 8.0 0.00 0.00 0.00 36 1018.3
20260503180732 52 279 5.0 5.0 0.00 0.00 0.00 39 1018.5
20260503180230 53 314 1.0 2.0 0.00 0.00 0.00 38 1018.5
20260503175726 53 336 1.0 1.0 0.00 0.00 0.00 40 1018.3
20260503175225 52 279 3.0 3.0 0.00 0.00 0.00 40 1018.6
20260503174720 52 286 1.0 2.0 0.00 0.00 0.00 39 1018.8
20260503174218 52 310 2.0 2.0 0.00 0.00 0.00 39 1018.5
20260503173713 52 319 1.0 3.0 0.00 0.00 0.00 41 1018.6
20260503173209 53 331 4.0 6.0 0.00 0.00 0.00 38 1018.9
20260503172707 53 334 1.0 1.0 0.00 0.00 0.00 36 1018.5
20260503172204 52 24 3.0 3.0 0.00 0.00 0.00 39 1019.0
20260503171700 52 7 4.0 5.0 0.00 0.00 0.00 38 1018.9
20260503171157 53 11 2.0 3.0 0.00 0.00 0.00 41 1019.1
20260503170654 51 293 1.0 2.0 0.00 0.00 0.00 40 1019.1
20260503170151 52 19 2.0 2.0 0.00 0.00 0.00 40 1019.1
20260503160113 48 278 4.0 6.0 0.00 0.00 0.00 42 1019.6
20260503150542 46 10 2.0 3.0 0.00 0.00 0.00 43 1019.9
20260503130932 40 319 1.0 1.0 0.00 0.00 0.00 66 1019.9
20260503130430 40 324 1.0 1.0 0.00 0.00 0.00 70 1019.7
20260503110326 31 332 0.0 0.0 0.00 0.00 0.00 94 1018.4
20260503100252 31 2 0.0 0.0 0.00 0.00 0.00 93 1017.6
20260503090212 32 3 0.0 0.0 0.00 0.00 0.00 92 1017.5
20260503081138 32 1 0.0 0.0 0.00 0.00 0.00 88 1016.8
20260503080634 32 0 0.0 0.0 0.00 0.00 0.00 88 1016.8
20260503080132 32 0 0.0 0.0 0.00 0.00 0.00 87 1016.6
20260503072609 35 335 0.0 0.0 0.00 0.00 0.00 83 1016.7
20260503072106 35 335 0.0 0.0 0.00 0.00 0.00 82 1016.8
20260503071602 35 335 0.0 0.0 0.00 0.00 0.00 81 1016.6
20260503071059 36 335 0.0 0.0 0.00 0.00 0.00 80 1016.3
20260503070555 36 335 0.0 0.0 0.00 0.00 0.00 79 1016.4